Location: Ab? ar R?sh Ba?r?
(24.1861°N, 32.8847°E)
Time: 23:47:53
(UTC+00:00)

Cosmos 1459 Rocket - Pass Details

Date: 24 October 2021
Orbit: 937 x 1000 km, 83.0° (Epoch: 05 December)

Event Time Altitude Azimuth Distance (km) Brightness Sun altitude
Rises 16:24:38 0° 163° (SSE) 3,680 6.9 -16.6°
Reaches altitude 10° 16:27:21 10° 155° (SSE) 2,726 6.2 -17.2°
Maximum altitude 16:33:00 37° 90° (E) 1,457 4.4 -18.5°
Drops below altitude 10° 16:38:36 10° 25° (NNE) 2,695 6.0 -19.8°
Sets 16:41:15 0° 17° (NNE) 3,634 6.8 -20.4°
